Malwa Express 12919 Schedule, Route, Map - Indore to Jammu train
Must See India - Best Travel Guide to India
Home   |   Login   |   Register   |   Contact Us
 

Malwa Express (12919)

Print
     

Service Days:

All Days

Classes:

AC 2 Tier (2A), AC 3 Tier (3A), Sleeper (SL)

Duration:

27h 40m

Station Arrival Departure Stop Time Distance Day
1 Indore (INDB) starts 12:25 pm Starts 0 km 1
2 Dewas (DWX) 01:08 pm 01:10 pm 2 min 39 km 1
3 Ujjain (UJN) 01:50 pm 02:00 pm 10 min 80 km 1
4 Maksi (MKC) 02:44 pm 02:45 pm 1 min 121 km 1
5 Berchha (BCH) 02:59 pm 03:01 pm 2 min 140 km 1
6 Akodia (AKD) 03:24 pm 03:26 pm 2 min 170 km 1
7 Shujalpur (SJP) 03:39 pm 03:41 pm 2 min 183 km 1
8 Kalapipal (KPP) 03:52 pm 03:54 pm 2 min 195 km 1
9 Sehore (SEH) 04:18 pm 04:20 pm 2 min 224 km 1
10 Bairagarh (BIH) 04:43 pm 04:45 pm 2 min 253 km 1
11 Bhopal (BPL) 05:25 pm 05:40 pm 15 min 263 km 1
12 Vidisha (BHS) 06:17 pm 06:19 pm 2 min 316 km 1
13 Ganj Basoda (BAQ) 06:48 pm 06:50 pm 2 min 356 km 1
14 Bina Jn (BINA) 07:45 pm 07:50 pm 5 min 402 km 1
15 Lalitpur (LAR) 08:32 pm 08:34 pm 2 min 464 km 1
16 Jhansi (JHS) 09:47 pm 09:57 pm 10 min 554 km 1
17 Datia (DAA) 10:17 pm 10:19 pm 2 min 579 km 1
18 Dabra (DBA) 10:42 pm 10:44 pm 2 min 609 km 1
19 Gwalior (GWL) 11:27 pm 11:32 pm 5 min 651 km 1
20 Morena (MRA) 11:57 pm 11:59 pm 2 min 690 km 1
21 Dhaulpur (DHO) 12:22 am 12:24 am 2 min 717 km 2
22 Agra (AGC) 01:20 am 01:25 am 5 min 770 km 2
23 Raja Ki Mandi (RKM) 01:32 am 01:34 am 2 min 774 km 2
24 Mathura (MTJ) 02:15 am 02:18 am 3 min 823 km 2
25 Kosi Kalan (KSV) 02:46 am 02:48 am 2 min 864 km 2
26 Palwal (PWL) 03:38 am 03:40 am 2 min 907 km 2
27 Ballabgarh (BVH) 03:58 am 04:00 am 2 min 928 km 2
28 Faridabad (FDB) 04:11 am 04:13 am 2 min 936 km 2
29 H Nizamuddin (NZM) 04:35 am 04:37 am 2 min 957 km 2
30 Delhi (NDLS) 05:10 am 05:30 am 20 min 964 km 2
31 Sonipat (SNP) 06:23 am 06:25 am 2 min 1,008 km 2
32 Panipat (PNP) 07:02 am 07:04 am 2 min 1,053 km 2
33 Karnal (KUN) 07:31 am 07:33 am 2 min 1,088 km 2
34 Kurukshetra (KKDE) 08:08 am 08:10 am 2 min 1,121 km 2
35 Ambala Cant Jn (UMB) 08:55 am 09:05 am 10 min 1,162 km 2
36 Khanna (KNN) 09:57 am 09:59 am 2 min 1,233 km 2
37 Ludhiana (LDH) 10:45 am 11:05 am 20 min 1,276 km 2
38 Jalandhar Cant (JRC) 11:50 am 11:55 am 5 min 1,328 km 2
39 Dasuya (DZA) 12:46 pm 12:48 pm 2 min 1,386 km 2
40 Mukeria (MEX) 01:04 pm 01:06 pm 2 min 1,401 km 2
41 Chakki Bank (CHKB) 01:55 pm 02:00 pm 5 min 1,441 km 2
42 Kathua (KTHU) 02:28 pm 02:30 pm 2 min 1,464 km 2
43 Jammu (JAT) 04:05 pm ends Ends 1,540 km 2

 

 Click to view map

You can drag the map with your mouse, and double-click to zoom.

People who viewed this page also viewed

 
Bharatpur honeymoon packages from Chennai
 
Bikaner honeymoon packages from Bangalore
 
Dharamsala honeymoon packages from Chennai
 
Kalimpong packages from Chennai
 
Kasauli honeymoon packages from Kolkata
 
Kumarakom packages from Mumbai
 
Munnar packages from Kolkata
 
Nainital tour packages from Chennai
 
Panchgani tour package from Chennai
 
Sikkim packages from Bangalore
 
Srinagar packages from Kolkata
 
hotels in Digha
 

Destinations

 
 

More

 
debug_temp: train_route : train:557:Malwa Express:Train